SCP
0 0 0 0 0 0 1 1 1 1 0 0 0 1 1 1 1 0 0 1 1 1 1 2 2 2 1 1 2 2 2 2 2 1 1 1 1 1 1 0 0 0 0 0
0 0 0 0 0 0 0 0 1 1 0 0 0 1 1 1 1 1 1 1 1 1 1 2 2 2 1 1 2 2 2 2 2 2 1 1 1 1 1 1 0 0 0 0
0 0 0 0 0 0 0 0 0 0 0 0 0 0 0 1 1 1 2 2 2 2 2 2 2 1 1 2 2 2 2 2 2 2 1 1 1 1 1 1 1 1 0 0
0 0 0 0 0 0 0 0 0 0 0 0 0 0 0 0 1 1 1 2 2 3 3 2 1 1 1 2 2 3 2 2 2 2 1 2 2 1 1 1 1 1 1 1
0 0 0 0 0 0 0 0 0 0 0 0 0 0 0 0 0 0 0 1 2 3 4 2 1 1 1 2 3 3 3 3 2 2 2 2 2 2 1 1 1 1 1 1
0 0 0 0 0 0 0 0 0 0 0 0 0 0 0 0 0 0 1 1 1 3 4 4 2 1 2 3 4 5 5 4 3 2 2 2 2 2 1 1 1 1 1 1
0 0 0 0 0 0 0 0 0 0 0 0 0 0 0 0 0 1 1 1 1 2 4 5 4 3 3 4 6 6 6 5 3 3 3 3 2 1 1 1 1 1 1 0
0 0 0 0 0 0 0 0 0 0 0 0 0 0 0 0 0 1 1 1 1 2 3 5 5 4 5 6 7 7 6 5 4 3 3 3 2 2 1 1 1 1 1 1
0 0 0 0 0 0 0 0 0 0 0 0 0 0 0 0 0 0 1 1 1 1 2 3 4 5 6 7 8 8 7 6 4 3 3 2 2 2 1 1 1 1 1 0
0 0 0 0 0 0 0 0 0 0 0 0 0 0 0 0 0 0 0 0 1 1 1 1 2 3 5 7 8 8 6 4 3 2 1 1 1 1 1 1 1 1 0 0
0 0 0 0 0 0 0 0 0 0 0 0 0 0 0 0 0 1 1 1 1 1 1 0 1 1 2 4 5 4 3 2 1 1 0 0 1 1 1 1 1 0 0 0
0 0 0 0 0 0 0 0 0 0 0 0 0 0 0 0 0 1 1 1 0 0 0 0 0 0 0 1 1 1 1 0 0 0 0 0 0 1 1 0 0 0 0 0
0 0 0 0 0 0 0 0 0 0 0 0 0 0 0 0 0 1 1 1 1 0 0 0 0 0 0 0 0 0 0 0 0 0 0 0 0 0 0 0 0 0 0 0
0 0 0 0 0 0 0 0 0 0 0 0 0 0 0 0 0 0 0 0 1 1 0 0 0 0 0 0 0 0 0 0 0 0 0 0 0 0 0 0 0 0 0 0
0 0 0 0 0 0 0 0 0 0 0 0 0 0 0 0 0 0 0 0 0 0 0 0 0 0 0 0 0 0 0 0 0 0 0 0 0 0 0 0 0 0 0 0
0 0 0 0 0 0 0 0 0 0 0 0 0 0 0 0 0 0 0 0 0 0 0 0 0 0 0 0 0 0 0 0 0 0 0 0 0 0 0 0 0 0 0 0
0 0 0 0 0 0 0 0 0 0 0 0 0 0 0 0 0 0 0 0 0 0 0 0 1 1 0 0 0 0 0 0 0 0 0 0 0 0 0 0 0 0 0 0
0 0 0 0 0 0 0 0 0 0 0 0 0 0 0 0 0 0 0 0 0 0 0 0 1 1 1 0 0 0 0 0 0 0 0 0 0 0 0 0 0 0 0 0
0 0 0 0 0 0 0 0 0 0 0 0 0 0 0 0 0 0 0 0 0 0 0 0 0 1 1 1 0 0 0 0 0 0 0 0 0 0 0 0 0 0 0 0
0 0 0 0 0 0 0 0 0 0 0 0 0 0 0 0 0 0 0 0 0 0 0 0 0 0 1 1 1 0 0 0 0 0 0 0 0 0 0 0 0 0 0 0
0 0 0 0 0 0 0 0 0 0 0 0 0 0 0 0 0 0 0 0 0 0 0 0 0 0 0 0 0 1 0 0 0 0 0 0 0 0 0 0 0 0 0 0
0 0 0 0 0 0 0 0 0 0 0 0 0 0 0 0 0 0 0 0 0 0 0 0 0 0 0 0 0 0 1 0 0 0 0 0 0 0 0 0 0 0 0 0
0 0 0 0 0 0 0 0 0 0 0 0 0 0 0 0 0 0 0 0 0 0 0 0 0 0 0 0 0 0 0 1 0 0 0 0 0 0 0 0 0 0 0 0
0 0 0 0 0 0 0 0 0 0 0 0 0 0 0 0 0 0 0 0 0 0 0 0 0 0 0 0 0 0 0 0 1 1 1 0 0 0 0 0 0 0 0 0
0 0 0 0 0 0 0 0 0 0 0 0 0 0 0 0 0 0 0 0 0 0 0 0 0 0 0 0 0 0 0 0 0 1 1 1 0 0 0 0 0 0 0 0
0 0 0 0 0 0 0 0 0 0 0 0 0 0 0 0 0 0 0 0 0 0 0 0 0 0 0 0 0 0 0 0 0 0 0 1 0 0 0 0 0 0 0 0
0 0 0 0 0 0 0 0 0 0 0 0 0 0 0 0 0 0 0 0 0 0 0 0 0 0 0 0 0 0 0 0 0 0 0 0 0 0 0 0 0 0 0 0
Wind_Speed
7 6 6 6 6 7 7 7 7 5 3 1 0 2 4 3 3 3 3 3 4 4 3 3 3 3 3 3 3 3 3 2 2 1 1 1 1 1 1 1 1 1 1 2
9 9 9 10 8 8 8 7 7 6 4 1 1 3 3 2 3 3 2 2 3 3 3 4 4 4 4 4 4 3 3 3 2 2 1 2 2 2 2 2 2 2 2 2
9 9 9 9 6 6 6 5 6 5 2 1 2 2 2 3 2 2 1 1 1 2 3 3 3 3 4 4 4 4 4 3 3 2 2 2 2 2 2 2 2 2 2 2
8 9 10 2 1 2 2 2 3 3 2 2 2 2 2 3 2 2 2 1 0 0 1 2 2 2 3 3 3 3 3 2 2 2 2 2 2 3 3 2 2 2 3 3
6 8 7 3 0 1 2 3 2 2 2 2 1 1 2 3 3 2 2 1 0 1 0 1 2 2 3 3 3 3 2 2 2 2 2 2 2 3 3 2 2 2 2 3
6 8 7 1 3 2 3 2 3 2 2 2 2 1 1 3 3 3 2 1 1 1 1 0 1 2 2 3 3 3 3 2 2 2 2 3 3 3 2 2 3 2 2 3
8 9 4 2 1 1 2 2 4 4 3 2 2 2 2 2 2 2 2 2 2 1 1 1 1 1 2 2 3 3 3 3 2 2 3 3 3 2 2 2 2 3 3 3
7 8 3 3 1 2 3 4 3 4 4 4 4 3 3 2 2 2 2 2 2 1 1 1 1 1 1 1 1 1 2 2 3 3 3 3 2 2 2 2 3 3 2 3
3 1 2 2 3 3 4 4 4 4 4 3 2 2 2 2 1 1 1 1 1 2 2 1 1 1 2 2 1 2 2 2 2 3 3 2 2 2 2 2 3 3 2 3
4 2 1 1 2 3 4 5 4 4 3 3 2 2 2 2 2 2 2 2 2 2 2 2 1 1 2 2 1 2 2 2 2 2 2 2 2 2 2 2 3 3 3 3
7 4 2 0 2 3 4 4 4 3 3 3 2 2 2 3 2 2 2 2 2 2 2 2 2 2 2 2 2 2 2 3 3 2 2 2 2 2 3 3 3 3 3 2
5 4 3 2 3 4 4 4 4 4 4 3 3 3 3 3 2 2 3 2 3 3 3 3 3 3 3 2 2 3 3 2 2 2 2 2 2 2 2 3 4 5 4 4
5 6 5 4 4 4 4 4 4 4 3 3 3 3 3 3 2 2 3 3 3 3 3 3 3 3 3 2 3 3 3 2 2 2 2 2 2 3 2 2 3 5 5 5
4 4 5 4 4 4 4 4 4 4 4 4 3 3 3 3 3 3 3 3 3 3 3 3 3 3 3 2 3 3 3 3 3 2 2 3 3 3 3 2 2 3 4 6
4 4 4 3 4 4 3 3 4 3 3 3 3 3 3 4 4 4 3 3 3 3 3 3 3 3 3 2 3 3 3 3 2 2 2 3 3 3 3 3 3 2 2 3
4 4 4 4 3 4 4 4 4 4 4 4 4 4 4 4 4 4 3 3 3 3 4 3 3 3 3 2 3 3 3 5 4 3 3 3 3 3 3 3 3 3 3 2
4 4 4 4 4 4 4 4 4 4 4 4 4 4 4 4 4 4 3 3 3 4 3 3 3 3 3 2 3 2 2 3 5 3 3 3 3 3 3 3 3 3 3 3
3 3 3 4 4 4 4 4 4 4 4 4 4 4 4 4 4 4 3 3 4 4 3 3 3 4 3 3 2 2 2 2 3 3 3 3 3 3 3 3 3 3 2 2
2 3 3 3 3 3 4 4 4 4 4 4 4 4 4 4 4 4 4 3 3 3 3 3 5 4 3 3 3 2 2 3 3 3 3 4 3 3 3 3 3 3 2 2
2 3 3 3 3 3 3 3 4 4 4 3 4 4 4 4 4 4 4 3 2 2 3 4 4 3 3 2 3 2 2 3 3 3 3 3 3 3 3 3 3 3 3 3
2 3 3 3 3 3 3 3 4 4 4 3 4 4 4 4 4 4 3 3 3 3 3 4 3 3 2 2 3 2 3 3 3 3 3 3 3 3 3 3 3 3 3 3
3 3 3 4 3 3 3 3 3 4 4 4 4 4 4 4 4 4 4 3 3 4 3 2 2 3 4 4 2 2 3 3 3 2 2 2 3 3 3 3 3 3 3 3
3 3 3 3 4 4 3 3 3 3 3 3 4 4 4 4 3 3 4 3 2 4 3 2 4 5 6 3 2 3 3 3 2 2 2 2 3 3 3 3 3 3 3 2
4 4 4 4 4 4 3 3 3 3 3 3 3 4 4 3 3 3 3 4 5 5 3 3 5 5 5 3 3 3 3 3 3 3 3 3 2 2 2 3 3 3 3 3
4 4 4 3 3 3 3 4 4 4 3 3 4 4 3 2 3 3 3 3 5 5 4 4 6 6 4 3 3 3 3 3 3 2 2 2 2 2 3 3 3 3 3 3
3 3 3 3 3 2 3 3 3 3 3 3 3 3 3 3 3 3 3 4 4 5 4 3 3 4 3 3 3 3 3 3 3 3 3 3 3 3 3 3 4 3 3 3
3 2 2 2 2 2 2 3 3 3 3 3 4 3 3 3 3 3 4 4 3 3 3 3 3 3 3 3 3 3 2 2 2 2 2 2 2 2 3 3 3 3 3 3
Wind_Direction
283 279 276 273 265 255 255 266 274 283 276 250 7 94 111 120 128 130 142 141 144 152 159 162 167 171 168 166 168 169 165 173 182 184 197 172 170 177 186 189 196 203 188 170
279 268 265 263 262 259 259 265 271 274 285 315 82 87 89 108 117 129 139 142 146 156 163 170 177 182 180 177 180 175 170 179 176 180 182 177 188 200 200 198 206 208 203 183
283 280 273 263 257 252 256 261 276 278 284 5 52 55 73 91 94 95 86 86 126 165 166 178 188 184 180 177 169 175 177 180 179 180 182 190 194 198 204 205 216 229 221 196
278 282 268 276 327 273 262 283 307 319 4 17 52 53 66 82 94 82 71 67 32 290 151 164 181 171 162 159 164 173 181 184 179 180 194 200 193 197 211 215 211 224 226 215
273 276 273 249 216 278 265 266 283 298 358 31 48 106 82 59 56 73 78 71 32 310 316 183 183 181 173 172 171 171 179 195 190 189 199 205 211 210 217 217 217 217 225 221
266 272 277 11 64 358 296 268 37 27 22 20 347 271 104 62 46 48 52 50 28 328 323 289 214 194 188 183 177 187 190 199 199 198 201 215 223 225 220 211 216 218 227 234
256 264 272 48 56 310 268 24 43 18 11 10 2 20 50 59 46 31 34 19 6 339 331 334 311 245 205 199 194 190 186 192 203 207 208 216 222 226 217 217 222 223 227 236
257 260 257 46 21 14 13 25 27 17 17 24 30 35 30 29 12 4 17 3 346 324 316 331 331 307 243 233 227 178 181 190 201 208 216 212 208 218 214 217 219 223 229 239
280 307 57 41 37 23 353 354 14 13 8 24 19 8 360 348 330 340 324 310 298 290 290 304 305 284 267 257 233 202 192 200 215 215 214 207 205 214 219 216 216 216 220 232
277 246 192 353 20 13 357 352 357 359 355 355 344 338 334 318 318 327 321 324 314 301 293 296 289 267 272 272 244 218 203 209 220 217 212 212 212 215 218 223 221 221 223 226
277 284 285 289 8 354 343 342 338 343 340 326 319 312 309 303 304 314 306 293 288 283 283 283 290 282 271 263 251 244 232 224 223 222 209 207 214 219 214 219 211 214 226 225
288 320 308 329 356 335 329 331 328 327 323 323 316 305 299 292 295 294 293 284 273 269 266 264 267 275 276 256 240 250 252 245 234 219 209 202 208 244 248 228 225 225 229 230
308 328 329 325 328 329 325 324 321 315 307 303 306 303 301 298 290 286 285 281 272 269 269 270 268 265 266 254 241 241 240 237 229 228 226 217 215 214 227 263 256 246 243 244
317 314 303 319 327 330 322 317 317 316 318 323 322 319 311 303 298 291 285 281 281 281 274 276 277 273 266 257 251 248 241 240 237 223 225 227 230 227 216 215 234 252 249 242
300 303 295 303 308 313 318 315 309 311 324 326 323 320 313 307 303 298 297 295 292 289 285 283 280 277 279 269 258 254 249 238 228 224 224 229 233 228 219 223 231 240 238 238
293 296 292 291 293 303 307 305 302 307 318 318 316 315 313 314 310 305 302 302 292 284 281 280 282 285 280 266 259 255 245 245 242 230 224 229 234 230 221 221 227 231 231 226
275 277 283 287 294 300 303 306 306 307 312 314 314 319 320 317 311 306 306 304 300 294 293 300 310 314 299 275 263 258 247 235 239 240 230 230 233 233 230 230 232 234 235 222
287 305 306 302 299 301 304 307 309 309 308 307 312 318 316 312 308 307 308 310 308 310 320 335 333 318 307 298 289 275 262 249 240 238 237 237 240 238 235 235 238 242 245 232
297 303 309 309 310 308 308 309 310 309 309 313 317 316 313 312 315 318 318 309 302 300 309 326 321 312 303 301 301 277 266 262 258 251 242 245 247 244 240 237 239 242 239 226
303 309 313 313 315 312 308 312 312 310 314 317 318 315 312 313 316 318 315 310 310 311 317 324 316 302 296 298 302 284 272 265 259 259 249 238 236 240 242 242 241 241 242 235
328 325 325 325 322 321 319 315 314 315 320 321 314 310 311 314 316 314 312 308 319 334 331 321 309 303 304 312 302 287 281 272 262 258 254 246 245 246 245 247 249 250 248 244
324 326 326 324 322 320 320 319 319 321 323 322 320 317 313 311 314 317 316 313 322 333 332 314 310 321 324 322 295 284 281 276 266 257 252 248 246 249 250 252 254 255 252 245
318 317 313 314 313 311 315 318 321 318 320 322 318 318 318 316 313 311 313 325 335 337 337 318 321 323 322 312 290 283 276 272 269 265 260 257 254 254 252 253 251 254 257 254
310 310 308 309 306 303 307 321 324 320 319 319 320 322 318 314 314 316 314 323 328 323 318 310 308 305 301 283 275 278 277 274 268 262 261 261 260 261 262 262 258 252 248 249
302 301 305 314 313 316 320 324 323 320 321 320 319 318 315 314 310 313 313 312 313 316 313 304 304 306 300 285 275 273 272 269 273 276 270 263 259 263 267 266 263 262 259 252
304 307 308 306 309 311 308 308 310 313 313 310 307 310 315 316 312 309 308 304 303 304 304 302 298 296 294 296 291 286 284 286 289 284 277 272 264 259 260 265 269 264 261 261
308 310 308 299 295 296 297 297 297 298 300 302 304 307 308 308 305 305 307 308 308 306 306 304 298 293 293 296 296 298 296 292 290 293 294 289 285 281 275 269 264 261 258 258